Location: Dominion City
(49.1330°N, 97.1500°W)
Time: 17:03:19
(UTC-06:00)

Daily predictions for brighter satellites

Satellite Brightness Start Highest point End
(mag) Time Altitude Azimuth Time Altitude Azimuth Time Altitude Azimuth
Okean-O 4.2 17:09:54 10° S 17:14:05 41° W 17:18:19 10° NNW
Cosmos 1814 Rocket 4.4 17:09:29 10° NNW 17:14:35 42° ENE 17:19:39 10° SE
Cosmos 1833 Rocket 3.8 17:10:18 10° N 17:14:46 23° NE 17:19:12 10° E
Cosmos 1707 Rocket 3.6 17:10:45 10° S 17:15:12 71° E 17:19:39 10° NNE
Cosmos 1933 4.0 17:12:17 10° SSE 17:16:00 36° E 17:19:43 10° NNE
TSX-5 3.9 17:13:34 10° NW 17:16:52 70° WSW 17:20:41 10° SSE
Cosmos 1844 4.4 17:12:27 10° S 17:17:41 37° ESE 17:22:58 10° NE
Aureole 3 3.9 17:13:59 10° N 17:18:11 58° ENE 17:23:31 10° SSE
ATLAS CENTAUR R/B 3.6 17:17:26 10° NW 17:18:26 11° NNW 17:19:27 10° N
COSMOS 2441 4.4 17:13:38 10° SSE 17:18:31 81° ENE 17:23:27 10° NNW
SL-27 R/B 4.0 17:18:14 10° NNE 17:20:17 15° NE 17:22:19 10° E
ALOS 3.7 17:17:41 10° E 17:20:36 17° ENE 17:23:33 10° NNE
Cosmos 1408 4.4 17:18:50 10° NNW 17:22:13 35° W 17:25:33 10° SSW
USA 238 DEB 4.4 17:15:57 10° WSW 17:22:39 49° NW 17:29:28 10° NE
ATLAS 3B R/B 3.6 17:15:44 10° WSW 17:22:40 46° NW 17:29:19 10° NE
USA 238 4.4 17:16:02 10° WSW 17:22:45 49° NW 17:29:34 10° NE
Cosmos 2173 Rocket 4.0 17:17:13 10° S 17:23:19 90° ESE 17:29:31 10° N
Cosmos 2278 Rocket 3.5 17:19:46 10° SSE 17:23:53 21° E 17:28:01 10° NE
SJ-12 4.0 17:22:52 10° SSE 17:27:01 87° WSW 17:31:13 10° NNW
Cosmos 2263 Rocket 3.2 17:21:49 10° SW 17:27:12 43° NW 17:32:34 10° NNE
Cosmos 1633 4.2 17:26:06 10° NNE 17:28:15 15° ENE 17:30:23 10° ESE
CZ-2C R/B 3.1 17:25:20 10° S 17:30:17 62° W 17:35:23 10° NNW
SMAP 3.1 17:25:49 10° SSE 17:30:23 58° ENE 17:34:58 10° N
Cosmos 1850 Rocket 4.0 17:28:08 10° SSW 17:33:20 86° ESE 17:38:33 10° NNE
Ariane Rocket 3.0 17:28:55 10° SSE 17:33:59 73° ENE 17:39:05 10° NNW
Cosmos 1459 Rocket 4.3 17:28:33 10° SSW 17:34:55 76° W 17:41:15 10° N
Cosmos 1862 3.9 17:32:37 10° NNW 17:36:36 63° W 17:40:35 10° S
IDEFIX/ARIANE 42P 4.0 17:32:12 10° SSW 17:37:09 42° W 17:42:07 10° NNW
Meteor 1-28 Rocket 4.0 17:33:54 10° NNE 17:37:12 29° E 17:40:29 10° SSE
Cosmos 1484 Rocket 2.7 17:33:24 10° SSE 17:37:13 65° ENE 17:41:08 10° N
Cosmos 540 Rocket 4.4 17:33:27 10° N 17:37:49 27° NE 17:42:10 10° ESE
CORIOLIS 4.2 17:33:05 10° SSE 17:38:29 63° ENE 17:43:52 10° N
Cosmos 841 Rocket 3.8 17:34:17 10° NNW 17:39:21 45° ENE 17:44:25 10° SE
USA 234 4.4 17:36:47 11° ENE 17:41:47 24° SE 17:46:55 10° S
Cosmos 1606 4.3 17:42:27 10° ESE 17:44:40 15° E 17:45:11 15° ENE
Cosmos 972 Rocket 3.9 17:39:55 10° NNW 17:44:56 90° NNE 17:49:50 10° SSE
AQUARIUS 4.1 17:42:52 10° SSE 17:47:21 81° ENE 17:51:53 10° NNW
Cosmos 1908 Rocket 4.0 17:43:32 10° N 17:47:38 39° ENE 17:51:42 10° SE
Cosmos 1741 Rocket 4.2 17:42:57 10° SSW 17:48:16 76° WNW 17:53:39 10° NNE
USA 161 3.2 17:49:00 10° NNW 17:50:29 20° WNW 17:52:02 10° SW
Meteor 1-25 Rocket 4.4 17:44:49 10° N 17:50:32 51° ENE 17:56:12 10° SSE
Cosmos 2233 Rocket 4.2 17:44:57 10° SSE 17:50:57 51° E 17:56:57 10° NNE
Cosmos 1733 Rocket 3.1 17:46:32 10° N 17:51:01 89° WSW 17:55:27 10° S
Cosmos 1782 4.2 17:49:36 10° SE 17:52:28 19° E 17:53:35 17° ENE
Cosmos 2242 Rocket 3.6 17:48:36 10° S 17:53:09 77° E 17:57:42 10° NNE
Sich 1 Rocket 4.0 17:50:57 10° N 17:55:07 39° ENE 17:59:17 10° SE
Meteor 1-20 Rocket 4.3 17:49:47 10° N 17:55:15 50° ENE 18:00:35 10° SSE
CZ-4C R/B 3.4 17:50:39 10° NW 17:56:47 37° NNE 18:02:17 16° E
SPOT 3 Rocket 3.9 17:53:18 10° SE 17:58:10 41° ENE 18:03:02 10° N
Cosmos 2082 Rocket 2.6 17:53:35 10° NNW 17:58:58 40° NE 18:04:17 10° ESE
NOSS 3-2 (C) 4.1 17:52:57 10° WSW 17:58:59 57° NW 18:05:41 10° NE
Lacrosse 5 2.4 17:54:12 10° WSW 17:59:10 54° NNW 18:03:04 16° NE
Cosmos 972 4.3 17:58:25 10° NNW 18:03:36 71° ENE 18:08:28 10° SSE
Cosmos 1862 Rocket 3.5 18:00:25 10° S 18:04:50 78° E 18:09:19 10° NNE
CSL-04 Rocket 4.4 18:01:44 10° S 18:06:56 56° WSW 18:12:13 10° NNW
NOAA 12 4.4 18:02:48 10° SE 18:07:48 43° ENE 18:12:49 10° N
Cosmos 44 Rocket 4.0 18:03:31 10° NNW 18:07:57 34° NE 18:10:24 22° E
NOSS 3-2 (A) 4.4 18:03:19 10° WSW 18:09:14 44° NNW 18:15:28 12° NE
Cosmos 1340 3.3 18:08:30 10° SSW 18:12:13 57° WNW 18:15:58 10° N
Cosmos 1437 2.9 18:15:52 10° SSW 18:19:02 71° WNW 18:22:03 11° N
METEOR-M 4.0 18:16:09 10° SSE 18:21:29 82° ENE 18:26:52 10° NNW
Cosmos 304 Rocket 4.1 18:16:57 10° NNW 18:21:45 69° WSW 18:26:31 10° SSE
ERBS 4.3 18:19:20 10° WNW 18:22:21 30° SW 18:25:21 10° SSE
MONITOR-E 4.0 18:20:35 10° SSE 18:23:36 66° ENE 18:26:39 10° N
Cosmos 292 Rocket 4.3 18:20:07 10° N 18:24:32 36° ENE 18:25:59 29° E
Cosmos 1725 Rocket 4.5 18:18:52 10° SSW 18:25:05 63° WNW 18:31:19 10° N
ERS-2 2.2 18:22:42 10° SSE 18:26:24 81° WSW 18:30:06 10° NNW
CZ-2C R/B 3.6 18:23:03 10° NNE 18:27:32 88° WNW 18:32:04 10° SSW
Okean 1-7 3.5 18:23:52 10° SSE 18:27:55 38° E 18:29:04 32° ENE
Meteor 1-14 Rocket 4.4 18:22:45 10° NNW 18:28:29 74° W 18:34:03 10° S
CENTAUR R/B 2.7 18:22:43 10° SW 18:28:57 77° NW 18:34:36 17° NE
Cosmos 1782 Rocket 3.4 18:27:39 10° N 18:32:00 64° ENE 18:36:18 10° SSE
BREEZE-M DEB (TANK) 1.7 18:31:27 10° W 18:33:37 88° N 18:34:22 49° E
Cosmos 1844 Rocket 3.4 18:29:58 10° SW 18:35:28 52° NW 18:40:54 10° NNE
COSMO-SKYMED 1 2.5 18:32:37 16° NNE 18:36:06 66° ESE 18:40:24 10° S
Intercosmos 25 4.4 18:31:26 10° S 18:39:33 69° E 18:44:26 10° NNE
COSMOS 2455 2.9 18:34:40 10° SW 18:40:41 83° NW 18:44:57 21° NNE
Timation 2 Rocket 4.5 18:34:48 10° NNW 18:41:19 44° NE 18:43:48 32° E
YAOGAN 1 3.4 18:37:28 10° S 18:41:41 51° W 18:45:56 10° NNW
Cosmos 1072 Rocket 4.5 18:37:14 10° S 18:43:20 61° E 18:49:34 10° NNE
CZ-4 R/B 3.2 18:41:14 10° SSW 18:44:42 31° W 18:48:09 10° NNW
Timation 1 Rocket 4.3 18:38:54 10° SSW 18:44:55 86° WNW 18:49:21 19° NNE
Cosmos 44 3.2 18:40:40 10° NNW 18:45:15 61° NE 18:46:29 44° ESE
Nadezhda 4 Rocket 4.2 18:39:50 10° N 18:45:41 44° ENE 18:50:08 17° SE
SL-23 DEB 4.3 18:42:22 10° WNW 18:46:15 73° NNE 18:48:10 40° E
Meteor 1-11 Rocket 3.9 18:42:20 10° N 18:48:06 51° ENE 18:53:03 13° SE
Cosmos 2034 Rocket 4.2 18:43:42 10° SSE 18:49:45 48° E 18:55:48 10° NNE
Cosmos 2221 Rocket 3.5 18:45:53 10° S 18:50:12 58° E 18:50:41 54° ENE
BREEZE-M DEB (TANK) 2.9 18:51:57 10° WSW 18:54:11 77° SW 18:54:11 77° SW
SL-27 R/B 3.4 18:52:32 10° NNW 18:55:43 44° WSW 18:58:54 10° S
FENGYUN 3A 3.7 18:51:25 10° SSE 18:56:51 83° WSW 19:02:18 10° NNW
ALOS 2.4 18:52:49 10° S 18:57:30 76° WSW 19:02:12 10° NNW
Cosmos 1833 Rocket 2.7 18:53:44 10° NNW 18:59:24 82° WSW 19:05:01 10° SSE
Cosmos 2297 3.9 18:54:58 10° S 19:00:26 49° ESE 19:00:47 48° E
Cosmos 1092 Rocket 4.4 18:54:53 10° N 18:59:51 39° NE 18:59:51 39° NE
Cosmos 1633 3.5 18:59:56 10° NNW 19:03:29 48° W 19:07:02 10° S
Cosmos 1703 Rocket 3.8 18:59:40 10° SSW 19:04:07 68° WNW 19:07:31 17° N
Cosmos 1503 Rocket 3.9 19:01:40 10° S 19:06:52 64° ESE 19:07:14 62° E
Cosmos 2278 Rocket 2.3 19:01:42 10° SW 19:07:22 73° WNW 19:10:32 27° NNE
Okean 2 Rocket 3.1 19:03:42 10° N 19:08:15 85° W 19:12:47 10° S
DMSP B5D1-3 4.4 19:11:37 31° NNE 19:14:12 88° ESE 19:19:22 10° SSW
ATLAS 3B R/B 4.2 19:09:26 10° WNW 19:15:05 25° N 19:17:46 20° NNE
Meteor 2-20 4.3 19:10:34 10° N 19:16:42 86° ENE 19:22:47 10° S
EO 1 Del DPAF 4.3 19:16:56 34° NNW 19:18:02 44° WNW 19:21:40 10° SW
Cosmos 1464 Rocket 3.9 19:13:06 10° S 19:19:13 83° W 19:25:26 10° N
Cosmos 540 Rocket 4.1 19:14:42 10° NNW 19:19:46 55° WSW 19:24:47 10° S
Cosmos 1606 3.6 19:16:24 10° SSW 19:20:04 46° WNW 19:20:19 45° WNW
USA 234 3.1 19:24:10 58° E 19:25:31 75° SE 19:32:04 10° SW
Cosmos 1782 4.0 19:24:42 10° SSW 19:28:31 41° WNW 19:29:16 37° NW
Meteor 2-6 Rocket 4.4 19:29:04 10° SSW 19:34:29 68° WNW 19:37:48 25° N
Lacrosse 5 3.1 19:38:21 10° WNW 19:42:16 32° NNW 19:42:16 32° NNW
Cosmos 2082 Rocket 3.4 19:37:46 10° NW 19:43:05 41° WSW 19:47:57 12° S
Cosmos 1354 Rocket 4.3 19:39:01 10° SSW 19:44:00 67° W 19:44:00 67° W
CZ-4C R/B 2.8 19:39:06 10° NW 19:46:07 86° SW 19:47:31 63° SSE
Cosmos 44 Rocket 4.1 19:44:57 10° NW 19:49:10 48° W 19:49:10 48° W
Meteor 1-27 Rocket 4.1 19:52:45 10° SSW 19:58:11 66° WSW 19:58:11 66° WSW
CENTAUR R/B 4.0 20:14:55 10° W 20:20:49 32° NNW 20:21:47 31° N
Cosmos 2278 Rocket 4.5 20:48:35 10° W 20:52:24 19° NW 20:52:24 19° NW
